Location: Unspecified
(48.8656°N, 0.0000°E)
Time: 19:19:26
(UTC+00:00)

Vanguard 1 Rocket - Pass Details

Date: 19 June 2019
Orbit: 651 x 4225 km, 34.3° (Epoch: 20 July)

Event Time Altitude Azimuth Distance (km) Brightness Sun altitude
Rises 16:12:56 0° 210° (SSW) 7,700 12.5 35.1°
Reaches altitude 10° 16:20:38 10° 197° (SSW) 6,048 11.9 33.8°
Maximum altitude 16:31:29 21° 158° (SSE) 4,073 10.7 32.0°
Drops below altitude 10° 16:38:53 10° 116° (ESE) 3,969 10.3 30.8°
Sets 16:42:27 0° 99° (E) 4,489 10.4 30.2°
